Regional Weather Roundup
Issued by NWS

Home | Current Version | Previous Version | Graphics & Text | Print | Product List | Glossary On
Versions: 1 2 3 4 5 6 7 8 9 10 11 12 13 14 15 16 17 18 19 20 21 22 23 24 25 26 27 28 29 30 31 32 33 34 35 36 37 38 39 40 41 42 43 44 45 46 47 48 49 50
000
ASUS43 KDMX 230006
RWRIA

WEATHER ROUNDUP FOR IOWA
NATIONAL WEATHER SERVICE DES MOINES IA
600 PM CST MON JAN 22 2018

NOTE: "FAIR" INDICATES FEW OR NO CLOUDS BELOW 12,000 FEET WITH NO
SIGNIFICANT WEATHER AND/OR OBSTRUCTIONS TO VISIBILITY.

* - THESE STATIONS ARE NOT NWS STATIONS...THUS NOT UNDER NWS
QUALITY CONTROL.  THEY ALSO DO NOT REPORT WEATHER SUCH
AS PRECIPITATION OR FOG.

IAZ001>003-012>014-020>022-031>034-043>046-230100-
   NORTHWEST IOWA

CITY           SKY/WX    TMP DP  RH WIND       PRES   REMARKS
CARROLL *      LGT RAIN  30  28  93 N33G41    29.58R WCI  14
CHEROKEE *     LGT SNOW  28  28  97 N20G30    29.71R WCI  15
DENISON *      LGT RAIN  30  28  93 N26G37    29.65R WCI  16
LE MARS *      LGT RAIN  28  27  93 N20G32    29.76R WCI  15
ORANGE CITY *  CLOUDY    28  28 100 N20G30    29.75R WCI  15
SHELDON *      CLOUDY    27  27 100 N29G38    29.72R FOG     WCI  11
SIOUX CITY     LGT SNOW  29  27  92 N25G35    29.76R BLWGSNOWWCI  14
6HR MIN TEMP:  28; 6HR MAX TEMP:  29; 6HR PCP:  0.06;

SPENCER        FOG       28  26  92 N26G36    29.69R VSB 1   WCI  13
6HR MIN TEMP:  28; 6HR MAX TEMP:  30;

STORM LAKE *   LGT SNOW  28  27  93 N30G37    29.65R WCI  13
$$

IAZ055>058-069>071-079>083-090>094-230100-
   SOUTHWEST IOWA

CITY           SKY/WX    TMP DP  RH WIND       PRES   REMARKS
ATLANTIC *     MIX PCPN  32  32 100 N24G40    29.57R WCI  19
AUDUBON *      LGT SNOW  30  27  86 N24G31    29.59R VSB 1   WCI  16
CLARINDA *     LGT SNOW  32  32 100 N20G32    29.57R WCI  20
COUNCIL BLFS * MIX PCPN  30  30 100 N24G36    29.64R VSB 1/2 WCI  16
CRESTON *      CLOUDY    36  34  93 N26       29.47R WCI  23
HARLAN  *      LGT RAIN  32  32 100 N25G37    29.64R WCI  19
LAMONI         CLOUDY    34  33  96 W5        29.45R WCI  30
6HR MIN TEMP:  34; 6HR MAX TEMP:  38; 6HR PCP:  0.04;

RED OAK *      FLURRIES  32  30  93 N26G37    29.59R WCI  18
SHENANDOAH *   LGT RAIN  32  32 100 NW23G36   29.61R WCI  19
$$

IAZ047>049-059>061-072>074-084-230100-
   CENTRAL IOWA

CITY           SKY/WX    TMP DP  RH WIND       PRES   REMARKS
AMES           MIX PCPN  35  35 100 N10       29.50R FOG     WCI  27
6HR MIN TEMP:  35; 6HR MAX TEMP:  39; 6HR PCP: TRACE;

ANKENY *       CLOUDY    36  36 100 CALM      29.48R FOG
BOONE *        LGT RAIN  34  34 100 N16G23    29.50R WCI  23
CHARITON *     CLOUDY    36  36 100 CALM      29.46R
DES MOINES     DRIZZLE   37  36  96 CALM      29.47R
6HR MIN TEMP:  37; 6HR MAX TEMP:  46; 6HR PCP:  0.05;

GRINNELL*      CLOUDY    37  33  85 SW6       29.47R WCI  32
KNOXVILLE *    CLOUDY    36  34  93 CALM      29.46R
MARSHALLTOWN   CLOUDY    36  35  96 N12       29.46R WCI  28
6HR MIN TEMP:  36; 6HR MAX TEMP:  42;

NEWTON *       CLOUDY    37  34  87 W5        29.48R WCI  34
PELLA *        CLOUDY    37  33  87 CALM      29.49R
PERRY *        DRIZZLE   34  34  99 N18G25    29.53R WCI  23
$$

IAZ004>006-015-016-023>025-035-036-230100-
   NORTH CENTRAL IOWA

CITY           SKY/WX    TMP DP  RH WIND       PRES   REMARKS
ALGONA *       LGT SNOW  28 N/A N/A N22G33    29.61R WCI  15
CLARION *      CLOUDY    32  32 100 N21G36    29.55R WCI  20
ESTHERVILLE    FOG       26  26 100 N32G38    29.66R VSB 3/4 WCI   9
6HR MIN TEMP:  26; 6HR MAX TEMP:  28;

FORT DODGE *   CLOUDY    30  28  92 N20G29    29.57R WCI  17
MASON CITY     CLOUDY    32  29  88 N24       29.56R WCI  19
6HR MIN TEMP:  32; 6HR MAX TEMP:  33; 6HR PCP:  0.04;

FOREST CITY *  CLOUDY    32  30  93 N18G26    29.58R WCI  20
WEBSTER CITY * FLURRIES  32  32 100 N22G29    29.51R WCI  19
IOWA FALLS *   CLOUDY    34  33  96 N16G22    29.50R WCI  24
$$

IAZ007>011-017>019-026>030-037>042-050>054-066-230100-
   NORTHEAST IOWA

CITY           SKY/WX    TMP DP  RH WIND       PRES   REMARKS
CEDAR RAPIDS   CLOUDY    39  31  72 SW8       29.46R WCI  33
6HR MIN TEMP:  38; 6HR MAX TEMP:  53;

CHARLES CITY * CLOUDY    34  34 100 NE16G23   29.51R FOG     WCI  23
CLINTON *      CLOUDY    39  35  86 SW8       29.49R WCI  33
DECORAH *      CLOUDY    34  32  93 NE9G16    29.49S FOG     WCI  26
DUBUQUE        CLOUDY    37  37 100 NE3       29.48R FOG
6HR MIN TEMP:  37; 6HR MAX TEMP:  40;

MONTICELLO *   CLOUDY    39  39 100 NE5       29.46S FOG
OELWEIN *      CLOUDY    34  34 100 NE13      29.48S WCI  25
WATERLOO       CLOUDY    35  33  92 NE12      29.48S WCI  27
6HR MIN TEMP:  35; 6HR MAX TEMP:  38;

$$

IAZ064-065-067-068-078-230100-
   EAST CENTRAL IOWA

CITY           SKY/WX    TMP DP  RH WIND       PRES   REMARKS
DAVENPORT      CLOUDY    41  29  62 SW10      29.50R
6HR MIN TEMP:  41; 6HR MAX TEMP:  57;

IOWA CITY      CLOUDY    40  32  73 SW10      29.50R WCI  33
6HR MIN TEMP:  40; 6HR MAX TEMP:  54;

MT. PLEASANT * LGT RAIN  37  32  81 SW5       29.50R WCI  34
MUSCATINE *    CLOUDY    41  32  70 SW9       29.51R
QUAD CITIES      N/A     41  29  62 SW9       29.50R
6HR MIN TEMP:  41; 6HR MAX TEMP:  59;

$$

IAZ062-063-075>077-085>089-095>099-230100-
   SOUTHEAST IOWA

CITY           SKY/WX    TMP DP  RH WIND       PRES   REMARKS
BURLINGTON     CLOUDY    39  30  70 SW10      29.49R WCI  32
6HR MIN TEMP:  39; 6HR MAX TEMP:  53;

FAIRFIELD *    CLOUDY    37  34  87 S7        29.48R WCI  32
FORT MADISON * CLOUDY    39  32  75 SW9       29.50S WCI  33
KEOKUK *       MIX PCPN  39  34  81 S12       29.49R WCI  32
OSKALOOSA *    DRIZZLE   35  34  94 S7        29.47S WCI  29
OTTUMWA        LGT RAIN  37  34  89 S6        29.47R WCI  32
6HR MIN TEMP:  36; 6HR MAX TEMP:  46; 6HR PCP:  0.01;

WASHINGTON *   CLOUDY    37  37 100 W5        29.50R WCI  34
$$

ABBREVIATIONS USED IN REMARKS
   TC - TEMPERATURES IN CELSIUS
  WCI - WIND CHILL INDEX
   HX - HEAT INDEX
  VSB - VISIBILITY
$$




USA.gov is the U.S. government's official web portal to all federal, state and local government web resources and services.